Regional Weather Roundup
Issued by NWS

Home | Current Version | Previous Version | Text Only | Print | Product List | Glossary On
Versions: 1 2 3 4 5 6 7 8 9 10 11 12 13 14 15 16 17 18 19 20 21 22 23 24 25 26 27 28 29 30 31 32 33 34 35 36 37 38 39 40 41 42 43 44 45 46 47 48 49 50
000
ASUS43 KLMK 260210
RWRKY
KENTUCKY REGIONAL WEATHER ROUNDUP
NATIONAL WEATHER SERVICE LOUISVILLE KY
1000 PM EDT SAT MAR 25 2017

NOTE "FAIR" INDICATES FEW OR NO CLOUDS BELOW 12,000 FEET
WITH NO SIGNIFICANT WEATHER AND/OR OBSTRUCTIONS TO VISIBILITY.

KYZ001>023-026-027-061>063-070>075-260300-
WESTERN AND SOUTH CENTRAL KENTUCKY

CITY           SKY/WX    TMP DP  RH WIND       PRES   REMARKS
PADUCAH        LGT RAIN  63  56  78 SW7       29.90R
HENDERSON      CLOUDY    64  52  63 SE5       29.92R
OWENSBORO      MOCLDY    64  58  80 SE12      29.95R
HOPKINSVILLE   MOCLDY    66  53  63 S6        29.95R
BOWLING GREEN  CLOUDY    65  54  67 S12       30.00R
GLASGOW        CLOUDY    63  53  71 S13       30.01S
$$

KYZ024-025-028>034-038-045-046-053-260300-
NORTH CENTRAL KENTUCKY

CITY           SKY/WX    TMP DP  RH WIND       PRES   REMARKS
LOUISVILLE/SDF CLOUDY    67  52  58 S14       30.00R
LOUISVILLE/LOU MOCLDY    68  53  58 SE10      30.01R
FORT KNOX      MOCLDY    63  55  73 SE12G22   29.98S
$$

KYZ035>037-039>044-047>052-055>060-089>105-260300-
NORTHEAST KENTUCKY

CITY           SKY/WX    TMP DP  RH WIND       PRES   REMARKS
LEXINGTON      MOCLDY    68  48  48 SE9       30.04R
COVINGTON      MOCLDY    67  51  56 SE7       30.02S
FRANKFORT      CLOUDY    70  48  45 SE7       30.01R
$$

KYZ054-064>069-076>088-106>120-260300-
SOUTHEAST KENTUCKY

CITY           SKY/WX    TMP DP  RH WIND       PRES   REMARKS
JACKSON        PTCLDY    69  45  41 CALM      30.08S
LONDON         PTCLDY    66  44  45 SE3       30.06R
SOMERSET       CLOUDY    64  50  59 W7        30.08R
MIDDLESBORO    MOCLDY    62  50  66 CALM      30.10R
MONTICELLO     CLOUDY    63  55  75 W13       30.08S
$$





USA.gov is the U.S. government's official web portal to all federal, state and local government web resources and services.